Location: Ottawa
(45.4170°N, 75.7000°W)
Time: 17:57:18
(UTC-04:00)

ISS - Visible Passes

Search period start: 27 October 2021 00:00
Search period end: 06 November 2021 00:00
Orbit: 417 x 423 km, 51.6° (Epoch: 27 October)

Date Brightness Start Highest point End Pass type
(mag) Time Alt. Az. Time Alt. Az. Time Alt. Az.
27 Oct -1.2 04:59:48 22° ENE 04:59:48 22° ENE 05:01:09 10° ENE visible
27 Oct -2.9 06:32:48 19° WNW 06:34:47 37° NNW 06:37:57 10° NE visible
28 Oct -3.2 05:47:38 47° N 05:47:38 47° N 05:50:43 10° NE visible
29 Oct -1.1 05:02:23 19° NE 05:02:23 19° NE 05:03:29 10° ENE visible
29 Oct -2.4 06:35:22 16° WNW 06:37:21 28° N 06:40:19 10° NE visible
30 Oct -2.5 05:50:05 31° N 05:50:05 31° N 05:52:59 10° NE visible
31 Oct -1.0 05:04:46 17° NE 05:04:46 17° NE 05:05:42 10° NE visible
31 Oct -2.3 06:37:45 15° NW 06:39:56 27° N 06:42:53 10° ENE visible
01 Nov -2.3 05:52:25 27° N 05:52:29 27° N 05:55:26 10° ENE visible
02 Nov -0.9 05:07:04 16° NE 05:07:04 16° NE 05:08:01 10° NE visible
02 Nov -2.6 06:40:03 15° NW 06:42:27 35° NNE 06:45:35 10° E visible
03 Nov -2.4 05:54:42 29° N 05:55:02 30° N 05:58:04 10° ENE visible
04 Nov -1.0 05:09:23 17° NE 05:09:23 17° NE 05:10:32 10° ENE visible
04 Nov -3.4 06:42:22 17° NW 06:44:50 60° NNE 06:48:10 10° ESE visible
05 Nov -3.0 05:57:04 42° N 05:57:28 44° NNE 06:00:43 10° E visible
